Regional Weather Roundup
Issued by NWS

Home | Current Version | Previous Version | Graphics & Text | Print | Product List | Glossary On
Versions: 1 2 3 4 5 6 7 8 9 10 11 12 13 14 15 16 17 18 19 20 21 22 23 24 25 26 27 28 29 30 31 32 33 34 35 36 37 38 39 40 41 42 43 44 45 46 47 48 49 50
000
ASUS43 KOAX 182102
RWRNE

WEATHER ROUNDUP FOR NEBRASKA
NATIONAL WEATHER SERVICE OMAHA NE
400 PM CDT FRI APR 18 2014

NOTES: SATELLITE DATA IS BEING USED TO AUGMENT CLOUD COVER ABOVE
       12000 FEET.
       "FAIR" INDICATES FEW OR NO CLOUDS BELOW 12,000 FEET WITH NO
       SIGNIFICANT WEATHER AND/OR OBSTRUCTIONS TO VISIBILITY.

  * THESE STATIONS DO NOT REPORT WEATHER SUCH AS RAIN...SNOW OR FOG.

NEZ001>004-019>022-054>056-182200-
NEBRASKA PANHANDLE

CITY           SKY/WX    TMP DP  RH WIND       PRES   REMARKS
SCOTTSBLUFF    PTSUNNY   83  35  18 S23G32    29.79F
ALLIANCE       CLOUDY    75  32  20 S20       29.83F
CHADRON        CLOUDY    79  40  24 S23G30    29.72F
KIMBALL        MOSUNNY   77  21  12 S12G21    29.88F
SIDNEY         MOSUNNY   80  30  16 S18G28    29.88F
$$

NEZ057>060-069>072-079>082-182200-
SOUTHWEST NEBRASKA

CITY           SKY/WX    TMP DP  RH WIND       PRES   REMARKS
NORTH PLATTE   CLOUDY    71  41  33 S23G32    29.92F
IMPERIAL       MOSUNNY   76  37  24 S24G30    29.91F
LEXINGTON      CLOUDY    69  43  38 S28G33    29.98F
MCCOOK         MOSUNNY   72  42  34 S24G40    29.95F
OGALLALA       CLOUDY    77  36  23 S18G30    29.88F
$$

NEZ005>010-023>029-035>040-094-182200-
NORTH CENTRAL NEBRASKA

CITY           SKY/WX    TMP DP  RH WIND       PRES   REMARKS
VALENTINE      CLOUDY    73  34  23 S31G41    29.81F
AINSWORTH      PTSUNNY   71  39  31 S31G38    29.87S
BROKEN BOW     CLOUDY    68  42  38 S24G38    29.96F
O`NEILL        SUNNY     70  34  26 S29G38    29.94F
ORD            MOSUNNY   69  40  34 S25G36    29.97F
THEDFORD       CLOUDY    73  35  25 S25G35    29.89F
$$

NEZ041-046>049-061>064-073>077-083>087-182200-
SOUTH CENTRAL NEBRASKA

CITY           SKY/WX    TMP DP  RH WIND       PRES   REMARKS
GRAND ISLAND   MOSUNNY   69  42  37 S29G36    30.04F
AURORA         SUNNY     68  42  37 S17G33    30.05F
HASTINGS       MOSUNNY   70  40  33 S22G31    30.03F
HEBRON         MOSUNNY   70  40  33 S16G31    30.09F
HOLDREGE       MOSUNNY   69  39  33 S29G39    30.00F
KEARNEY *      MOSUNNY   70  43  37 S29G35    30.01F
YORK           MOSUNNY   68  41  37 S21G31    30.07F
$$

NEZ011>018-030>034-042>045-182200-
NORTHEAST NEBRASKA

CITY           SKY/WX    TMP DP  RH WIND       PRES   REMARKS
NORFOLK        SUNNY     69  39  33 S24G38    30.03F
ALBION         SUNNY     68  39  34 S28G37    30.02F
BLAIR          SUNNY     67  35  30 S21G28    30.12F
COLUMBUS *     SUNNY     68  43  40 S24G32    30.07F
FREMONT        SUNNY     69  36  29 SE18G26   30.11F
TEKAMAH        SUNNY     70  35  27 S24G35    30.12F
$$

NEZ050>053-065>068-078-088>093-182200-
SOUTHEAST NEBRASKA

CITY           SKY/WX    TMP DP  RH WIND       PRES   REMARKS
LINCOLN        SUNNY     72  39  30 S24G32    30.10F
OMAHA EPPLEY   MOSUNNY   68  36  30 S17       30.13F
BEATRICE       SUNNY     69  39  32 S16G29    30.12F
NEBRASKA CITY  SUNNY     68  38  33 S16G24    30.16F
PLATTSMOUTH    SUNNY     69  33  27 SE18G24   30.15F
$$

NEZ044-045-051>053-067-182200-
OMAHA AREA

CITY           SKY/WX    TMP DP  RH WIND       PRES   REMARKS
OMAHA EPPLEY   MOSUNNY   68  36  30 S17       30.13F
BLAIR          SUNNY     67  35  30 S21G28    30.12F
FREMONT        SUNNY     69  36  29 SE18G26   30.11F
MILLARD        SUNNY     67  38  34 S12G21    30.13F
OFFUTT AFB     SUNNY     68  38  33 S20G32    30.14F
PLATTSMOUTH    SUNNY     69  33  27 SE18G24   30.15F
WAHOO          FAIR      70  33  25 S22G31    30.10F
$$



USA.gov is the U.S. government's official web portal to all federal, state and local government web resources and services.